Погода в Харидваре

Индия     30°02′05″N   78°12′36″E
темп.,
°C
ветер,
м/с
пор.,
м/с
влажн.,
%
обл.,
%
осадки,
мм/ч
давл.,
гПа
погр.,
м
21 января, чт
чт2123:30+10всв12580 0.0 101623
02:30+9всв12540 0.0 101525
05:30+9всв22410 0.0 101426
08:30+11всв22280 0.0 101466
11:30+21зюз21160 0.0 1013599
14:30+22зюз32200 0.0 1010922
17:30+15с11320 0.0 101223
20:30+12всв11370 0.0 101522
22 января, пт
пт2223:30+11всв22380 0.0 101625
02:30+10в22380 0.0 101624
05:30+9всв22330 0.0 101625
08:30+12всв22280 0.0 101665
11:30+21ююз22240 0.0 1016732
14:30+22ююз332862 0.0 10131056
17:30+17ю114181 0.0 101323
20:30+14всв2246100 0.0 101524
23 января, сб
сб2323:30+13всв2246100 0.0 101523
02:30+13всв2246100 0.0 101425
05:30+13всв2246100 0.0 101328
08:30+15в1144100 0.0 101465
11:30+22ю2431100 0.0 10141011
14:30+23ю4530100 0.0 10111218
17:30+18ююв2544100 0.0 1011121
20:30+16в224982 0.0 101457
24 января, вс
вс2423:30+15всв225689 0.1 101432
02:30+11св227424 0.6 101438
05:30+11всв227028 0.8 101429
08:30+14св236518 0.0 101687
11:30+23ююз23339 0.0 10161252
14:30+24ююз35285 0.0 10132577
17:30+18зюз12463 0.0 101428
20:30+15св22550 0.0 101723
25 января, пн
пн2523:30+13св22550 0.0 101838
02:30+12всв22570 0.0 101847
05:30+11всв22530 0.0 101758
08:30+14всв23440 0.0 1018113
11:30+24ююв12240 0.0 10171014
14:30+24юз43240 0.0 10141893
17:30+19з22410 0.0 101527
20:30+14всв11520 0.0 101823